Monarch Pass, CO

6:06 PM MDT on June 24, 2017 (GMT -0600)
Monarch Pass

Weather History for KMYP - October, 2011

Change the Weather History Date:

Tuesday, October 4, 2011

  Actual Average (KALS) Record (KALS)
Temperature  
Mean Temperature 40 °F -  
Max Temperature 46 °F 67 °F 77 °F (1987)
Min Temperature 33 °F 30 °F 17 °F (1986)
Degree Days  
Heating Degree Days 26    
Moisture  
Dew Point 34 °F    
Average Humidity 89    
Maximum Humidity 100    
Minimum Humidity 61    
Precipitation  
Precipitation 0.00 in - - ()
Sea Level Pressure  
Sea Level Pressure 30.54 in    
Wind  
Wind Speed 17 mph (SSW)    
Max Wind Speed 24 mph    
Max Gust Speed 36 mph    
Visibility 6 miles    
Events Fog , Rain , Snow , Thunderstorm    
Averages and records for this station are not official NWS values.
T = Trace of Precipitation, MM = Missing Value Source: NWS Daily Summary

Daily Weather History Graph

Daily Weather History Graph

Search for Another Location

Airport or City:

Trip Planner

Search our weather history database for the weather conditions in past years. The results will help you decide how hot, cold, wet, or windy it might be!

Date:

Astronomy

Oct. 04, 2011 Rise Set
Actual Time 7:03 AM MDT 6:43 PM MDT
Civil Twilight 6:36 AM MDT 7:09 PM MDT
Nautical Twilight 6:06 AM MDT 7:40 PM MDT
Astronomical Twilight 5:35 AM MDT 8:11 PM MDT
Moon 2:42 PM MDT (10/4) No Moon Set
Length of Visible Light 12h 33m
Length of Day
11h 40m
First Quarter, 56% of the Moon is Illuminated
Oct 4
First Quarter
Oct 11
Full
Oct 19
Last Quarter
Oct 26
New
Nov 2
First Quarter

Hourly Weather History & Observations

Time (MDT) Temp. Windchill Dew Point Humidity Pressure Visibility Wind Dir Wind Speed Gust Speed Precip Events Conditions
12:10 AM 35.6 °F 23.7 °F 33.8 °F 93% 30.62 in 10.0 mi South 24.2 mph 27.6 mph N/A   Scattered Clouds
12:30 AM 35.6 °F 24.5 °F 33.8 °F 93% 30.61 in 10.0 mi SSW 20.7 mph 28.8 mph N/A   Scattered Clouds
12:50 AM 35.6 °F 25.2 °F 33.8 °F 93% 30.61 in 10.0 mi SSW 18.4 mph - N/A   Scattered Clouds
1:10 AM 35.6 °F 25.2 °F 33.8 °F 93% 30.61 in 10.0 mi South 18.4 mph 24.2 mph N/A   Mostly Cloudy
1:30 AM 35.6 °F 24.5 °F 33.8 °F 93% 30.61 in 10.0 mi South 20.7 mph 25.3 mph N/A   Overcast
1:50 AM 35.6 °F 25.5 °F 33.8 °F 93% 30.61 in 10.0 mi South 17.3 mph 26.5 mph N/A   Overcast
2:10 AM 35.6 °F 26.2 °F 33.8 °F 93% 30.60 in 10.0 mi SSW 15.0 mph - N/A   Overcast
2:30 AM 35.6 °F 25.9 °F 33.8 °F 93% 30.60 in 10.0 mi SSW 16.1 mph 21.9 mph N/A   Overcast
2:50 AM 35.6 °F 24.5 °F 33.8 °F 93% 30.59 in 10.0 mi SSW 20.7 mph 26.5 mph N/A   Drizzle
3:10 AM 35.6 °F 24.8 °F 33.8 °F 93% 30.58 in 10.0 mi SSW 19.6 mph 27.6 mph N/A   Light Drizzle
3:30 AM 35.6 °F 24.5 °F 33.8 °F 93% 30.58 in 4.0 mi SSW 20.7 mph 27.6 mph N/A   Overcast
3:50 AM 35.6 °F 26.2 °F 33.8 °F 93% 30.58 in 0.5 mi SSW 15.0 mph 21.9 mph N/A   Light Drizzle
4:10 AM 35.6 °F 26.6 °F 33.8 °F 93% 30.58 in 0.2 mi SSW 13.8 mph - N/A Snow Light Snow
4:30 AM 35.6 °F 26.2 °F 33.8 °F 93% 30.57 in 0.8 mi SSW 15.0 mph - N/A Rain Light Rain
4:50 AM 35.6 °F 27.1 °F 33.8 °F 93% 30.57 in 1.8 mi SSW 12.7 mph - N/A   Overcast
5:10 AM 35.6 °F 26.2 °F 33.8 °F 93% 30.57 in 5.0 mi SSW 15.0 mph - N/A   Overcast
5:50 AM 35.6 °F 27.5 °F 33.8 °F 93% 30.57 in 10.0 mi SSW 11.5 mph - N/A   Overcast
6:10 AM 35.6 °F 27.1 °F 33.8 °F 93% 30.58 in 10.0 mi SSW 12.7 mph - N/A   Overcast
6:30 AM 35.6 °F 27.1 °F 33.8 °F 93% 30.58 in 10.0 mi SSW 12.7 mph - N/A   Overcast
6:50 AM 35.6 °F 27.1 °F 33.8 °F 93% 30.58 in 10.0 mi SW 12.7 mph - N/A   Overcast
7:10 AM 35.6 °F 26.6 °F 33.8 °F 93% 30.58 in 10.0 mi SSW 13.8 mph - N/A   Overcast
7:30 AM 35.6 °F 26.2 °F 33.8 °F 93% 30.58 in 10.0 mi SSW 15.0 mph - N/A Rain Light Rain
7:50 AM 35.6 °F 26.6 °F 33.8 °F 93% 30.58 in 0.2 mi SSW 13.8 mph - N/A Rain Light Rain
8:10 AM 35.6 °F 27.1 °F 33.8 °F 93% 30.58 in 4.0 mi WSW 12.7 mph - N/A   Overcast
8:30 AM 35.6 °F 27.1 °F 35.6 °F 100% 30.58 in 5.0 mi SW 12.7 mph - N/A Rain Light Rain
8:50 AM 35.6 °F 25.2 °F 33.8 °F 93% 30.58 in 4.0 mi SSW 18.4 mph - N/A Rain Rain
9:10 AM 35.6 °F 25.2 °F 33.8 °F 93% 30.58 in 0.2 mi SSW 18.4 mph - N/A Rain Light Rain
9:30 AM 35.6 °F 24.8 °F 35.6 °F 100% 30.58 in 0.2 mi SW 19.6 mph - N/A Rain Light Rain
9:50 AM 37.4 °F 27.2 °F 35.6 °F 93% 30.58 in 0.2 mi WSW 19.6 mph - N/A Snow Light Snow
10:10 AM 37.4 °F 28.5 °F 35.6 °F 93% 30.57 in 10.0 mi SW 15.0 mph - N/A   Overcast
10:30 AM 37.4 °F 28.9 °F 37.4 °F 100% 30.56 in 10.0 mi WSW 13.8 mph - N/A   Overcast
10:50 AM 41.0 °F 33.9 °F 35.6 °F 81% 30.56 in 10.0 mi SSW 12.7 mph - N/A   Overcast
11:10 AM 41.0 °F 35.2 °F 35.6 °F 81% 30.56 in 10.0 mi SSW 9.2 mph - N/A   Overcast
11:30 AM 41.0 °F 33.9 °F 33.8 °F 76% 30.56 in 10.0 mi SW 12.7 mph - N/A   Scattered Clouds
11:50 AM 42.8 °F 39.3 °F 35.6 °F 76% 30.55 in 10.0 mi WSW 5.8 mph - N/A   Mostly Cloudy
12:10 PM 44.6 °F 38.8 °F 35.6 °F 71% 30.54 in 10.0 mi South 11.5 mph 16.1 mph N/A   Overcast
12:30 PM 46.4 °F 42.9 °F 35.6 °F 66% 30.53 in 10.0 mi SSE 6.9 mph 20.7 mph N/A   Overcast
12:50 PM 44.6 °F 38.8 °F 33.8 °F 66% 30.52 in 10.0 mi SSW 11.5 mph 17.3 mph N/A   Mostly Cloudy
1:10 PM 44.6 °F 39.2 °F 33.8 °F 66% 30.50 in 10.0 mi South 10.4 mph 16.1 mph N/A   Mostly Cloudy
1:30 PM 44.6 °F 38.8 °F 32.0 °F 61% 30.49 in 10.0 mi South 11.5 mph - N/A   Mostly Cloudy
1:50 PM 42.8 °F 38.6 °F 35.6 °F 76% 30.48 in 10.0 mi SSE 6.9 mph - N/A Rain Light Rain
2:30 PM 41.0 °F 32.8 °F 33.8 °F 76% 30.48 in 4.0 mi SSW 16.1 mph 25.3 mph N/A Rain , Thunderstorm Heavy Thunderstorms and Rain
2:50 PM 35.6 °F 24.2 °F 33.8 °F 93% 30.48 in 0.2 mi SSW 21.9 mph 31.1 mph N/A Rain , Thunderstorm Thunderstorms and Rain
3:10 PM 35.6 °F 27.1 °F 33.8 °F 93% 30.46 in 0.2 mi SSW 12.7 mph 23.0 mph N/A Snow Snow
3:30 PM 39.2 °F 31.2 °F 37.4 °F 93% 30.45 in 0.2 mi SSW 13.8 mph - N/A Fog Fog
3:50 PM 39.2 °F 32.0 °F 35.6 °F 87% 30.45 in 10.0 mi SSW 11.5 mph - N/A   Mostly Cloudy
4:10 PM 39.2 °F 31.6 °F 35.6 °F 87% 30.45 in 10.0 mi SSW 12.7 mph 18.4 mph N/A   Mostly Cloudy
4:30 PM 39.2 °F 34.2 °F 35.6 °F 87% 30.44 in 10.0 mi SW 6.9 mph - N/A   Overcast
4:50 PM 37.4 °F 32.1 °F 35.6 °F 93% 30.43 in 7.0 mi South 6.9 mph - N/A Thunderstorm Overcast
5:10 PM 35.6 °F 26.2 °F 35.6 °F 100% 30.43 in 0.2 mi South 15.0 mph 24.2 mph N/A Rain Light Rain
5:30 PM 35.6 °F 24.2 °F 33.8 °F 93% 30.42 in 0.2 mi SSW 21.9 mph 31.1 mph N/A Snow Light Snow
5:50 PM 33.8 °F 21.6 °F 32.0 °F 93% 30.42 in 0.2 mi WSW 23.0 mph 35.7 mph N/A Snow Heavy Snow
6:10 PM 33.8 °F 22.5 °F 32.0 °F 93% 30.42 in 0.2 mi WSW 19.6 mph 25.3 mph N/A Snow Light Snow
6:30 PM 33.8 °F 21.6 °F 33.8 °F 100% 30.41 in 0.2 mi SW 23.0 mph - N/A Snow Light Snow
6:50 PM 33.8 °F 23.2 °F 33.8 °F 100% 30.42 in 0.2 mi SSW 17.3 mph - N/A Snow Light Snow
7:10 PM 33.8 °F 21.3 °F 33.8 °F 100% 30.42 in 0.2 mi SSW 24.2 mph - N/A Snow Light Snow
7:30 PM 33.8 °F 22.8 °F 33.8 °F 100% 30.41 in 0.2 mi SSW 18.4 mph 27.6 mph N/A Snow Snow
7:50 PM 33.8 °F 25.8 °F 32.0 °F 93% 30.41 in 0.2 mi SSW 10.4 mph - N/A Snow Heavy Snow
8:10 PM 33.8 °F 24.8 °F 32.0 °F 93% 30.42 in 0.2 mi SSW 12.7 mph - N/A Snow Light Snow
8:30 PM 33.8 °F 23.5 °F 33.8 °F 100% 30.41 in 0.2 mi SW 16.1 mph 24.2 mph N/A Fog Fog
9:10 PM 33.8 °F 23.2 °F 32.0 °F 93% 30.40 in 0.2 mi SW 17.3 mph - N/A Snow Snow
9:30 PM 33.8 °F 22.5 °F 32.0 °F 93% 30.39 in 0.2 mi SW 19.6 mph - N/A Snow Snow
9:50 PM 33.8 °F 22.2 °F 32.0 °F 93% 30.40 in 0.2 mi SSW 20.7 mph - N/A Snow Heavy Snow
10:10 PM 33.8 °F 22.5 °F 33.8 °F 100% 30.39 in 0.2 mi SSW 19.6 mph - N/A Snow Heavy Snow
10:30 PM 33.8 °F 22.8 °F 33.8 °F 100% 30.39 in 0.2 mi SSW 18.4 mph - N/A Snow Heavy Snow
10:50 PM 33.8 °F 23.2 °F 33.8 °F 100% 30.39 in 0.2 mi SSW 17.3 mph - N/A Snow Heavy Snow
11:10 PM 33.8 °F 23.2 °F 33.8 °F 100% 30.39 in 0.2 mi SW 17.3 mph - N/A Snow Heavy Snow
11:30 PM 33.8 °F 23.5 °F 32.0 °F 93% 30.38 in 0.2 mi SW 16.1 mph - N/A Snow Heavy Snow
11:50 PM 33.8 °F 22.8 °F 32.0 °F 93% 30.37 in 0.2 mi SSW 18.4 mph 25.3 mph N/A Snow Heavy Snow